SAS1868 EKCH-ENZV

Flight info

Callsign SAS1868
Flight time N/A
Altitude 32000
Route GOLGA DCT AAL L621 LAGUM DCT RIVEX
Aircraft E195/M-SDE3GILORVW/S

Departure

Time N/A
Airport Copenhagen Kastrup Airport (EKCH)

Arrival

Time 2026-04-27 21:19
Airport Stavanger Airport, Sola (ENZV)
Time Latitude Longitude Altitude Speed Heading
2026-04-27 20:41 56.90335 10.49320 32384 ft 414 kts 312°
2026-04-27 20:42 56.94072 10.41225 32387 ft 414 kts 312°
2026-04-27 20:42 56.97788 10.33152 32392 ft 414 kts 313°
2026-04-27 20:43 57.01498 10.25058 32384 ft 414 kts 313°
2026-04-27 20:43 57.05196 10.16950 32380 ft 414 kts 313°
2026-04-27 20:44 57.08892 10.08835 32381 ft 414 kts 312°
2026-04-27 20:44 57.12581 10.00709 32380 ft 417 kts 312°
2026-04-27 20:45 57.16297 9.92493 32370 ft 416 kts 312°
2026-04-27 20:45 57.20005 9.84269 32380 ft 416 kts 312°
2026-04-27 20:46 57.23704 9.76042 32377 ft 416 kts 312°
2026-04-27 20:46 57.27402 9.67788 32388 ft 417 kts 312°
2026-04-27 20:47 57.31069 9.59571 32390 ft 411 kts 312°
2026-04-27 20:47 57.34723 9.51352 32402 ft 416 kts 312°
2026-04-27 20:48 57.37786 9.44443 32395 ft 416 kts 312°
2026-04-27 20:48 57.42079 9.34731 32405 ft 416 kts 312°
2026-04-27 20:49 57.45681 9.26397 32393 ft 417 kts 308°
2026-04-27 20:49 57.48993 9.17554 32405 ft 417 kts 307°
2026-04-27 20:50 57.52270 9.08644 32404 ft 417 kts 307°
2026-04-27 20:50 57.55547 8.99703 32401 ft 420 kts 307°
2026-04-27 20:51 57.58842 8.90693 32401 ft 420 kts 307°
2026-04-27 20:51 57.61598 8.83127 32408 ft 420 kts 307°
2026-04-27 20:52 57.64835 8.74215 32407 ft 412 kts 307°
2026-04-27 20:52 57.68028 8.65388 32408 ft 413 kts 307°
2026-04-27 20:53 57.71238 8.56478 32412 ft 413 kts 307°
2026-04-27 20:53 57.74445 8.47542 32404 ft 414 kts 307°
2026-04-27 20:54 57.79285 8.34005 32406 ft 416 kts 307°
2026-04-27 20:55 57.82499 8.24969 32413 ft 416 kts 307°
2026-04-27 20:55 57.85703 8.15921 32407 ft 416 kts 307°
2026-04-27 20:56 57.88908 8.06840 32410 ft 416 kts 307°
2026-04-27 20:56 57.92104 7.97755 32412 ft 416 kts 306°
2026-04-27 20:57 57.95295 7.88645 32408 ft 417 kts 307°
2026-04-27 20:57 57.98449 7.79611 32417 ft 410 kts 307°
2026-04-27 20:58 58.01577 7.70615 32409 ft 411 kts 307°
2026-04-27 20:58 58.04707 7.61574 32423 ft 411 kts 306°
2026-04-27 20:59 58.07814 7.52568 31846 ft 411 kts 306°
2026-04-27 20:59 58.09371 7.48042 31363 ft 410 kts 306°
2026-04-27 20:59 58.10928 7.43507 30891 ft 412 kts 306°
2026-04-27 20:59 58.12492 7.38948 30414 ft 414 kts 306°
2026-04-27 21:00 58.14057 7.34363 29867 ft 416 kts 307°
2026-04-27 21:00 58.15636 7.29748 29334 ft 415 kts 307°
2026-04-27 21:00 58.17194 7.25174 28821 ft 412 kts 307°
2026-04-27 21:00 58.18740 7.20628 28291 ft 408 kts 306°
2026-04-27 21:01 58.20268 7.16127 27780 ft 405 kts 306°
2026-04-27 21:01 58.21784 7.11650 27276 ft 402 kts 306°
2026-04-27 21:01 58.23298 7.07177 26781 ft 400 kts 306°
2026-04-27 21:01 58.24778 7.02788 26309 ft 397 kts 306°
2026-04-27 21:02 58.26282 6.98330 25826 ft 394 kts 306°
2026-04-27 21:02 58.27730 6.94020 25367 ft 392 kts 306°
2026-04-27 21:02 58.29192 6.89666 24911 ft 389 kts 306°
2026-04-27 21:02 58.30654 6.85299 24450 ft 383 kts 306°
2026-04-27 21:03 58.32057 6.81108 23979 ft 379 kts 306°
2026-04-27 21:03 58.33465 6.76886 23449 ft 378 kts 306°
2026-04-27 21:03 58.34873 6.72668 22935 ft 376 kts 306°
2026-04-27 21:03 58.36272 6.68457 22423 ft 374 kts 306°
2026-04-27 21:04 58.37658 6.64289 21916 ft 371 kts 306°
2026-04-27 21:04 58.39036 6.60131 21419 ft 369 kts 306°
2026-04-27 21:04 58.40326 6.55961 20936 ft 368 kts 302°
2026-04-27 21:04 58.41531 6.51595 20470 ft 367 kts 299°
2026-04-27 21:05 58.42459 6.47098 19996 ft 368 kts 292°
2026-04-27 21:05 58.43307 6.42576 19594 ft 349 kts 292°
2026-04-27 21:05 58.44036 6.38495 19613 ft 300 kts 292°
2026-04-27 21:05 58.44695 6.34831 18887 ft 286 kts 292°
2026-04-27 21:06 58.45330 6.31291 18019 ft 276 kts 292°
2026-04-27 21:06 58.45941 6.27871 17139 ft 268 kts 292°
2026-04-27 21:06 58.46535 6.24536 16284 ft 262 kts 291°
2026-04-27 21:06 58.47115 6.21273 15458 ft 257 kts 291°
2026-04-27 21:07 58.47686 6.18057 14661 ft 253 kts 291°
2026-04-27 21:07 58.48229 6.15005 13870 ft 250 kts 291°
2026-04-27 21:07 58.48780 6.11867 13020 ft 248 kts 291°
2026-04-27 21:07 58.49328 6.08765 12189 ft 245 kts 291°
2026-04-27 21:08 58.50096 6.05940 11360 ft 237 kts 315°
2026-04-27 21:08 58.51443 6.04251 10607 ft 231 kts 339°
2026-04-27 21:08 58.52948 6.03248 9831 ft 226 kts 346°
2026-04-27 21:08 58.54482 6.02693 9048 ft 223 kts 354°
2026-04-27 21:09 58.56013 6.02332 8280 ft 221 kts 355°
2026-04-27 21:09 58.57537 6.02083 7521 ft 219 kts 356°
2026-04-27 21:09 58.59033 6.01724 6786 ft 219 kts 353°
2026-04-27 21:09 58.60530 6.01214 5998 ft 218 kts 351°
2026-04-27 21:10 58.61989 6.00686 5593 ft 202 kts 351°
2026-04-27 21:10 58.63318 6.00218 5482 ft 190 kts 351°
2026-04-27 21:10 58.64620 5.99775 5439 ft 190 kts 352°
2026-04-27 21:10 58.65933 5.99486 5425 ft 190 kts 356°
2026-04-27 21:11 58.67251 5.99300 5431 ft 190 kts 357°
2026-04-27 21:11 58.68572 5.99150 5433 ft 189 kts 358°
2026-04-27 21:11 58.69710 5.99024 5434 ft 189 kts 358°
2026-04-27 21:11 58.70773 5.98915 5420 ft 190 kts 358°
2026-04-27 21:12 58.72056 5.98769 5277 ft 178 kts 357°
2026-04-27 21:12 58.73261 5.98614 5074 ft 169 kts 357°
2026-04-27 21:12 58.74420 5.98465 4862 ft 165 kts 357°
2026-04-27 21:12 58.75570 5.98329 4656 ft 160 kts 358°
2026-04-27 21:13 58.76668 5.98206 4446 ft 156 kts 358°
2026-04-27 21:13 58.77748 5.98083 4254 ft 156 kts 357°
2026-04-27 21:13 58.78837 5.97968 4073 ft 157 kts 357°
2026-04-27 21:13 58.79928 5.97835 3906 ft 157 kts 358°
2026-04-27 21:14 58.81020 5.97714 3723 ft 156 kts 358°
2026-04-27 21:14 58.82084 5.97468 3538 ft 156 kts 339°
2026-04-27 21:14 58.82761 5.96019 3482 ft 147 kts 284°
2026-04-27 21:14 58.82938 5.94185 3537 ft 135 kts 285°
2026-04-27 21:15 58.83218 5.92468 3536 ft 134 kts 288°
2026-04-27 21:15 58.83521 5.90768 3528 ft 135 kts 288°
2026-04-27 21:15 58.83806 5.89017 3520 ft 137 kts 287°
2026-04-27 21:15 58.84091 5.87273 3494 ft 135 kts 291°
2026-04-27 21:16 58.84368 5.85542 3395 ft 137 kts 289°
2026-04-27 21:16 58.84594 5.83746 3182 ft 137 kts 284°
2026-04-27 21:16 58.84829 5.81954 2890 ft 137 kts 291°
2026-04-27 21:16 58.85136 5.80178 2614 ft 142 kts 292°
2026-04-27 21:17 58.85442 5.78375 2338 ft 137 kts 292°
2026-04-27 21:17 58.85707 5.76609 2020 ft 136 kts 290°
2026-04-27 21:17 58.85974 5.74878 1695 ft 132 kts 293°
2026-04-27 21:17 58.86253 5.73163 1344 ft 133 kts 291°
2026-04-27 21:18 58.86511 5.71468 1058 ft 130 kts 292°
2026-04-27 21:18 58.86786 5.69799 722 ft 128 kts 291°
2026-04-27 21:18 58.87018 5.68179 473 ft 122 kts 288°
2026-04-27 21:18 58.87250 5.66626 318 ft 118 kts 289°
2026-04-27 21:19 58.87478 5.65118 142 ft 117 kts 289°
2026-04-27 21:19 58.87704 5.63627 34 ft 109 kts 289°
2026-04-27 21:19 58.87851 5.62650 25 ft 35 kts 286°